When you browse on this site, cookies collect data to enhance your experience and personalize the content and advertising you see.
Visit our Privacy Policy to learn more. By continuing to use the site, you agree to this use of cookies and data.
  • In Spain
  • List of Countries
  • For 7 days
  • Water Temperature
  • Satellite Maps
  • Weather Map
  • Weather Widgets
  • user-avatar
    Login

    Hourly Weather Malanje

    Today, 19 December, Wednesday

    Time Temperature Precipitation Wind Pressure Humidity
    00:00 +19°C° 0.5 mm 2 mps 666 mmHg 98%
    01:00 +19°C° 0.5 mm 2 mps 666 mmHg 98%
    02:00 +19°C° 0.6 mm 2 mps 666 mmHg 98%
    03:00 +19°C° 0.6 mm 2 mps 665 mmHg 98%
    04:00 +19°C° 0.6 mm 2 mps 665 mmHg 98%
    05:00 +19°C° 1.7 mm 2 mps 666 mmHg 98%
    06:00 +19°C° 1.7 mm 2 mps 666 mmHg 98%
    07:00 +19°C° 1.7 mm 2 mps 666 mmHg 98%
    08:00 +19°C° 2.4 mm 2 mps 666 mmHg 98%
    09:00 +19°C° 2.4 mm 2 mps 667 mmHg 97%
    10:00 +19°C° 2.4 mm 2 mps 667 mmHg 97%
    11:00 +20°C° 1.2 mm 2 mps 666 mmHg 96%
    12:00 +20°C° 1.2 mm 2 mps 666 mmHg 94%
    13:00 +21°C° 1.2 mm 2 mps 665 mmHg 93%
    14:00 +21°C° 0.1 mm 2 mps 665 mmHg 90%
    15:00 +23°C° 0.1 mm 2 mps 664 mmHg 87%
    16:00 +24°C° 0.1 mm 2 mps 664 mmHg 84%
    17:00 +23°C° 0.3 mm 2 mps 664 mmHg 88%
    18:00 +22°C° 0.3 mm 1 mps 664 mmHg 92%
    19:00 +21°C° 0.3 mm 1 mps 664 mmHg 96%
    20:00 +20°C° 0 mm 1 mps 664 mmHg 96%
    21:00 +20°C° 0 mm 1 mps 665 mmHg 97%
    22:00 +20°C° 0 mm 1 mps 665 mmHg 97%
    23:00 +20°C° 0 mm 1 mps 665 mmHg 97%

    Tomorrow, 20 December, Thursday

    Time Temperature Precipitation Wind Pressure Humidity
    00:00 +19°C° 0 mm 1 mps 665 mmHg 97%
    01:00 +18°C° 0 mm 2 mps 665 mmHg 98%
    02:00 +18°C° 0.1 mm 2 mps 665 mmHg 98%
    03:00 +19°C° 0.1 mm 2 mps 664 mmHg 98%
    04:00 +19°C° 0.1 mm 2 mps 664 mmHg 98%
    05:00 +19°C° 0 mm 2 mps 665 mmHg 97%
    06:00 +19°C° 0 mm 2 mps 665 mmHg 96%
    07:00 +19°C° 0 mm 2 mps 666 mmHg 95%
    08:00 +21°C° 0 mm 2 mps 666 mmHg 89%
    09:00 +22°C° 0 mm 3 mps 666 mmHg 82%
    10:00 +24°C° 0 mm 3 mps 667 mmHg 76%
    11:00 +25°C° 0.4 mm 3 mps 666 mmHg 78%
    12:00 +25°C° 0.4 mm 3 mps 665 mmHg 80%
    13:00 +25°C° 0.4 mm 3 mps 665 mmHg 82%
    14:00 +25°C° 0.6 mm 3 mps 664 mmHg 84%
    15:00 +24°C° 0.6 mm 3 mps 664 mmHg 87%
    16:00 +24°C° 0.6 mm 3 mps 663 mmHg 90%
    17:00 +23°C° 0.4 mm 2 mps 664 mmHg 92%
    18:00 +21°C° 0.4 mm 2 mps 664 mmHg 94%
    19:00 +20°C° 0.4 mm 2 mps 664 mmHg 97%
    20:00 +20°C° 0 mm 2 mps 665 mmHg 97%
    21:00 +19°C° 0 mm 2 mps 665 mmHg 97%
    22:00 +19°C° 0 mm 3 mps 666 mmHg 98%
    23:00 +19°C° 0.1 mm 3 mps 666 mmHg 98%

    Day after tomorrow, 21 December, Friday

    Time Temperature Precipitation Wind Pressure Humidity
    00:00 +19°C° 0.1 mm 3 mps 665 mmHg 97%
    01:00 +19°C° 0.1 mm 3 mps 665 mmHg 97%
    02:00 +19°C° 0.3 mm 2 mps 665 mmHg 98%
    03:00 +18°C° 0.3 mm 2 mps 665 mmHg 98%
    04:00 +18°C° 0.3 mm 2 mps 664 mmHg 98%
    05:00 +18°C° 0.1 mm 2 mps 665 mmHg 98%
    06:00 +18°C° 0.1 mm 3 mps 665 mmHg 97%
    07:00 +18°C° 0.1 mm 3 mps 666 mmHg 97%
    08:00 +19°C° 0.1 mm 3 mps 666 mmHg 94%
    09:00 +20°C° 0.1 mm 3 mps 666 mmHg 90%
    10:00 +21°C° 0.1 mm 3 mps 666 mmHg 86%
    11:00 +22°C° 0 mm 3 mps 666 mmHg 81%
    12:00 +25°C° 0 mm 3 mps 665 mmHg 77%
    13:00 +26°C° 0 mm 3 mps 665 mmHg 72%
    14:00 +25°C° 0.3 mm 2 mps 665 mmHg 76%
    15:00 +25°C° 0.3 mm 2 mps 664 mmHg 79%
    16:00 +25°C° 0.3 mm 2 mps 664 mmHg 83%
    17:00 +23°C° 0.3 mm 2 mps 664 mmHg 86%
    18:00 +21°C° 0.3 mm 2 mps 664 mmHg 90%
    19:00 +20°C° 0.3 mm 2 mps 664 mmHg 94%
    20:00 +19°C° 0 mm 2 mps 665 mmHg 95%
    21:00 +19°C° 0 mm 2 mps 665 mmHg 95%
    22:00 +19°C° 0 mm 2 mps 665 mmHg 96%
    23:00 +18°C° 0 mm 2 mps 665 mmHg 97%

    22 December, Saturday

    Time Temperature Precipitation Wind Pressure Humidity
    00:00 +18°C° 0 mm 2 mps 664 mmHg 97%
    01:00 +18°C° 0 mm 3 mps 664 mmHg 97%
    02:00 +18°C° 0 mm 2 mps 664 mmHg 97%
    03:00 +18°C° 0 mm 2 mps 664 mmHg 97%
    04:00 +18°C° 0 mm 2 mps 664 mmHg 97%
    05:00 +18°C° 0 mm 2 mps 665 mmHg 96%
    06:00 +18°C° 0 mm 2 mps 665 mmHg 96%
    07:00 +19°C° 0 mm 2 mps 666 mmHg 95%
    08:00 +20°C° 0 mm 2 mps 666 mmHg 86%
    09:00 +23°C° 0 mm 2 mps 666 mmHg 77%
    10:00 +25°C° 0 mm 2 mps 667 mmHg 68%
    11:00 +26°C° 0.2 mm 2 mps 666 mmHg 67%
    12:00 +27°C° 0.2 mm 2 mps 665 mmHg 66%
    13:00 +27°C° 0.2 mm 2 mps 665 mmHg 64%
    14:00 +27°C° 1 mm 2 mps 664 mmHg 72%
    15:00 +26°C° 1 mm 2 mps 663 mmHg 79%
    16:00 +25°C° 1 mm 2 mps 663 mmHg 86%
    17:00 +24°C° 0.9 mm 2 mps 663 mmHg 89%
    18:00 +21°C° 0.9 mm 2 mps 663 mmHg 92%
    19:00 +21°C° 0.9 mm 1 mps 663 mmHg 94%
    20:00 +20°C° 0 mm 1 mps 664 mmHg 95%
    21:00 +20°C° 0 mm 1 mps 664 mmHg 96%
    22:00 +20°C° 0 mm 1 mps 665 mmHg 97%
    23:00 +19°C° 0.1 mm 2 mps 664 mmHg 97%

    23 December, Sunday

    Time Temperature Precipitation Wind Pressure Humidity
    00:00 +18°C° 0.1 mm 2 mps 664 mmHg 97%
    01:00 +18°C° 0.1 mm 2 mps 664 mmHg 98%
    02:00 +18°C° 0.2 mm 2 mps 664 mmHg 98%
    03:00 +18°C° 0.2 mm 2 mps 663 mmHg 98%
    04:00 +18°C° 0.2 mm 2 mps 663 mmHg 98%
    05:00 +18°C° 0 mm 2 mps 664 mmHg 98%
    06:00 +20°C° 0 mm 1 mps 664 mmHg 97%
    07:00 +20°C° 0 mm 1 mps 665 mmHg 97%
    08:00 +21°C° 0.1 mm 1 mps 665 mmHg 92%
    09:00 +23°C° 0.1 mm 1 mps 665 mmHg 86%
    10:00 +24°C° 0.1 mm 2 mps 666 mmHg 81%
    11:00 +25°C° 0.7 mm 2 mps 665 mmHg 80%
    12:00 +25°C° 0.7 mm 2 mps 664 mmHg 79%
    13:00 +26°C° 0.7 mm 2 mps 664 mmHg 79%
    14:00 +26°C° 0.9 mm 2 mps 663 mmHg 81%
    15:00 +25°C° 0.9 mm 2 mps 663 mmHg 84%
    16:00 +25°C° 0.9 mm 2 mps 662 mmHg 87%
    17:00 +24°C° 0.5 mm 2 mps 662 mmHg 90%
    18:00 +21°C° 0.5 mm 2 mps 663 mmHg 92%
    19:00 +21°C° 0.5 mm 1 mps 663 mmHg 95%
    20:00 +21°C° 0.1 mm 1 mps 663 mmHg 95%
    21:00 +20°C° 0.1 mm 1 mps 664 mmHg 96%
    22:00 +20°C° 0.1 mm 1 mps 664 mmHg 97%
    23:00 +19°C° 0 mm 2 mps 664 mmHg 97%

    24 December, Monday

    Time Temperature Precipitation Wind Pressure Humidity
    00:00 +19°C° 0 mm 2 mps 664 mmHg 98%
    01:00 +18°C° 0 mm 2 mps 663 mmHg 98%
    02:00 +18°C° 0 mm 2 mps 664 mmHg 98%
    03:00 +18°C° 0 mm 2 mps 664 mmHg 98%
    04:00 +18°C° 0 mm 2 mps 664 mmHg 98%
    05:00 +19°C° 0 mm 2 mps 664 mmHg 98%
    06:00 +19°C° 0 mm 2 mps 665 mmHg 97%
    07:00 +19°C° 0 mm 2 mps 665 mmHg 97%
    08:00 +21°C° 0 mm 2 mps 665 mmHg 89%
    09:00 +23°C° 0 mm 2 mps 666 mmHg 82%
    10:00 +24°C° 0 mm 2 mps 666 mmHg 75%
    11:00 +26°C° 0.1 mm 2 mps 665 mmHg 70%
    12:00 +27°C° 0.1 mm 3 mps 665 mmHg 65%
    13:00 +28°C° 0.1 mm 3 mps 664 mmHg 61%
    14:00 +27°C° 0.2 mm 3 mps 664 mmHg 64%
    15:00 +27°C° 0.2 mm 3 mps 663 mmHg 68%
    16:00 +27°C° 0.2 mm 3 mps 663 mmHg 71%
    17:00 +25°C° 0.2 mm 2 mps 663 mmHg 77%
    18:00 +23°C° 0.2 mm 2 mps 663 mmHg 83%
    19:00 +21°C° 0.2 mm 1 mps 663 mmHg 89%
    20:00 +21°C° 0 mm 1 mps 664 mmHg 90%
    21:00 +20°C° 0 mm 1 mps 664 mmHg 91%
    22:00 +20°C° 0 mm 1 mps 665 mmHg 92%
    23:00 +19°C° 0 mm 1 mps 664 mmHg 93%
    Show more